Location: Habighorst
(52.7089°N, 10.2278°E)
Time: 00:00:08
(UTC+00:00)

Cosmos 1743 Rocket - Pass Details

Date: 13 January 2026
Orbit: 597 x 626 km, 82.6° (Epoch: 9 February)

Event Time Altitude Azimuth Distance (km) Brightness Sun altitude
Rises 05:10:44 0° 175° (S) 2,901 7.2 -19.4°
Reaches altitude 10° 05:13:00 10° 171° (S) 1,998 6.4 -19.1°
Maximum altitude 05:17:17 52° 95° (E) 778 4.4 -18.5°
Drops below altitude 10° 05:21:37 10° 19° (NNE) 2,004 6.3 -17.8°
Sets 05:23:53 0° 15° (NNE) 2,911 7.0 -17.5°
